Regional Weather Roundup
Issued by NWS

Home | Current Version | Previous Version | Text Only | Print | Product List | Glossary Off
Versions: 1 2 3 4 5 6 7 8 9 10 11 12 13 14 15 16 17 18 19 20 21 22 23 24 25 26 27 28 29 30 31 32 33 34 35 36 37 38 39 40 41 42 43 44 45 46 47 48 49 50

000
ASUS43 KMKX 230000
RWRWI

WISCONSIN REGIONAL WEATHER ROUNDUP
NATIONAL WEATHER SERVICE MILWAUKEE/SULLIVAN WI
700 PM CDT FRI AUG 22 2014

NOTE: "FAIR" INDICATES FEW OR NO CLOUDS BELOW 12,000 FEET WITH NO
SIGNIFICANT WEATHER AND/OR OBSTRUCTIONS TO VISIBILITY.

WIZ001-002-006>008-014>016-023>028-230100-
NORTHWEST WISCONSIN

CITY           SKY/WX    TMP DP  RH WIND       PRES   REMARKS
SUPERIOR ARPT  CLOUDY    62  60  94 N5        30.03S
ASHLAND        CLOUDY    66  62  87 NE6       30.03R
6HR MIN TEMP:  65; 6HR MAX TEMP:  68;

HAYWARD        CLOUDY    70  67  90 NE7       30.02R
6HR MIN TEMP:  70; 6HR MAX TEMP:  74;

SIREN          CLOUDY    71  67  85 NE6       30.01S
RICE LAKE      CLOUDY    73  67  83 NW3       30.01S
6HR MIN TEMP:  73; 6HR MAX TEMP:  78; 6HR PCP:  0.01;

LADYSMITH      PTCLDY    76  70  81 N7        30.00R
EAU CLAIRE     CLEAR     80  71  74 N9        29.95R HX  84
6HR MIN TEMP:  80; 6HR MAX TEMP:  86;

MENOMONIE      PTCLDY    78  69  73 W10       29.98R HX  81
6HR MIN TEMP:  78; 6HR MAX TEMP:  86;

NEW RICHMOND   CLOUDY    73  69  87 N6        30.00R
OSCEOLA        CLOUDY    73  71  92 CALM      30.02S
$$

WIZ003>005-009-010-017-018-230100-
NORTH CENTRAL WISCONSIN

CITY           SKY/WX    TMP DP  RH WIND       PRES   REMARKS
WOODRUFF       MOCLDY    77  71  83 NW5       30.01R
RHINELANDER    CLOUDY    73  69  87 CALM      30.01R
6HR MIN TEMP:  70; 6HR MAX TEMP:  74; 6HR PCP: TRACE;

EAGLE RIVER    DRIZZLE   71  70  98 E5        30.01R
LAND O LAKES   LGT RAIN  70  69  97 E3        30.02R
PHILLIPS       CLOUDY    72  69  91 N5        30.00R
6HR MIN TEMP:  70; 6HR MAX TEMP:  74;

TOMAHAWK       MOCLDY    73  69  87 CALM      30.00S FOG
MEDFORD        CLOUDY    76  72  87 NE5       29.98R
MERRILL        CLOUDY    73  72  98 E3        29.98S FOG
$$

WIZ029-030-035-036-043>047-230100-
CENTRAL WISCONSIN

CITY           SKY/WX    TMP DP  RH WIND       PRES   REMARKS
WAUSAU         MOCLDY    79  73  82 E7        29.95S HX  82
6HR MIN TEMP:  75; 6HR MAX TEMP:  82; 6HR PCP: TRACE;

MOSINEE        PTCLDY    79  73  83 CALM      29.98R HX  82
MARSHFIELD     MOCLDY    83  73  72 NW3       29.96R HX  89
6HR MIN TEMP:  76; 6HR MAX TEMP:  84; 6HR PCP: TRACE;

STEVENS POINT  PTCLDY    82  71  71 NW3       29.96R HX  86
WAUPACA        PTCLDY    78  75  91 CALM      29.94F HX  80
WAUTOMA        NOT AVBL
WISC RAPIDS    CLEAR     84  73  69 W3        29.96R HX  90
6HR MIN TEMP:  83; 6HR MAX TEMP:  88;

CAMP DOUGLAS   NOT AVBL
$$

WIZ011>013-019>022-031-037>040-048>050-230100-
NORTHEAST WISCONSIN

CITY           SKY/WX    TMP DP  RH WIND       PRES   REMARKS
ANTIGO         CLOUDY    73  71  94 E3        30.00R FOG
STURGEON BAY   MOCLDY    70  66  88 E6        30.00R
6HR MIN TEMP:  70; 6HR MAX TEMP:  73;

GREEN BAY      PTCLDY    77  72  84 E10       29.96R
6HR MIN TEMP:  77; 6HR MAX TEMP:  84;

MANITOWOC      NOT AVBL
APPLETON       MOCLDY    79  72  78 E9        29.96R HX  82
CLINTONVILLE   CLOUDY    79  72  78 E7        29.94S HX  82
OSHKOSH        PTCLDY    78  73  84 E7        29.95R HX  81
6HR MIN TEMP:  78; 6HR MAX TEMP:  84;

$$

WIZ032>034-041-042-053>061-230100-
SOUTHWEST WISCONSIN

CITY           SKY/WX    TMP DP  RH WIND       PRES   REMARKS
LA CROSSE      CLEAR     85  73  67 NW3       29.92S HX  91
6HR MIN TEMP:  79; 6HR MAX TEMP:  89;

SPARTA         CLEAR     84  72  65 W5        29.94S HX  89
VIROQUA        FAIR      83  75  77 NW3       29.95S HX  91
BOSCOBEL       MOCLDY    87  75  67 CALM      29.91S HX  96
6HR MIN TEMP:  87; 6HR MAX TEMP:  93;

PRAIRIE DU CHI MOCLDY    87  72  59 SW3       29.90S HX  93
PLATTEVILLE    FAIR      84  77  80 S3        29.94S HX  94
$$

WIZ056-057-062-063-064-067-068-230100-
SOUTH CENTRAL WISCONSIN

CITY           SKY/WX    TMP DP  RH WIND       PRES   REMARKS
BARABOO/DELLS  PTCLDY    87  68  53 CALM      29.93S HX  91
LONE ROCK      NOT AVBL
WATERTOWN      MOCLDY    85  77  77 E9        29.93R HX  94
MADISON        PTCLDY    86  73  65 CALM      29.93R HX  93
6HR MIN TEMP:  83; 6HR MAX TEMP:  91;

MIDDLETON      FAIR      87  73  63 CALM      29.93S HX  94
MONROE         MOCLDY    82  77  83 S3        29.94S HX  91
JANESVILLE     PTCLDY    84  73  70 SW6         N/A  HX  91
$$

WIZ051-052-058>065-066-070>072-230100-
SOUTHEAST WISCONSIN

CITY           SKY/WX    TMP DP  RH WIND       PRES   REMARKS
MILWAUKEE      FOG       71  69  93 NE7       29.97R VSB 3/4
6HR MIN TEMP:  71; 6HR MAX TEMP:  83;

WAUKESHA       PTCLDY    75  70  83 E6        29.97R
MILWAUKEE/TIMM NOT AVBL
RACINE         CLOUDY    73  70  90 E7        29.98R FOG
6HR MIN TEMP:  72; 6HR MAX TEMP:  84;

BURLINGTON     PTCLDY    78  73  85 E8        29.95R HX  80
KENOSHA        PTCLDY    76  72  87 E9        29.97R
6HR MIN TEMP:  76; 6HR MAX TEMP:  84;

FOND DU LAC    PTCLDY    80  72  76 SE12      29.95R HX  84
6HR MIN TEMP:  80; 6HR MAX TEMP:  89;

SHEBOYGAN      MOCLDY    71  68  90 NE7       29.98R
6HR MIN TEMP:  71; 6HR MAX TEMP:  81;

WEST BEND      PTCLDY    75  68  78 E6        29.96S
JUNEAU         PTCLDY    81  73  76 E9        29.95R HX  86
$$

LSZ147-162-230100-
LAKE SUPERIOR

STATION/POSITION TIME  TEMP    WIND        PRES    WAVE
                       AIR SEA DIR/SP/G            HT/PER
                 (UTC) (F)     (DEG/KT/KT) (MB)    (FT/S)
W MID LAKE BUOY  2250   58 58   30/ 12/ 14 1015.7R   1/ 3
DEVILS ISLAND    2300   60      50/  8/  9 1016.7R
PORT WING        2300   60      30/  9/ 10 1016.9R
SAXON HARBOR     2300   62      20/  3/  4 1016.6R
$$

LMZ867-665-643>646-230100-
LAKE MICHIGAN

STATION/POSITION TIME  TEMP    WIND        PRES    WAVE
                       AIR SEA DIR/SP/G            HT/PER
                 (UTC) (F)     (DEG/KT/KT) (MB)    (FT/S)
N MID LAKE BUOY  2250   68 67   70/  6/  8 1015.3R   0
NORTHPORT PIER   2300   67     120/  4/  5 1015.6S
SISTER BAY       2341   69     130/  9/ 12   N/A
KEWAUNEE LAKESHO 2300   68      50/  4/  5 1014.2S
SHEBOYGAN LAKESH 2300   68 65   60/  5/  5 1014.8R
ATWATER BUOY     2300   70      40/  6/  6 1015.5R
MILWAUKEE LAKESH 2300   69      40/  7/  8   N/A
S MID LAKE BUOY  2250   72 71   80/  6/  6 1014.1R   0
KENOSHA   LAKESH 2300   74      80/  7/  8 1013.5R
$$

TC  - TEMPERATURE IN CELSIUS
VSB - VISIBILITY IN STATUTE MILES
WCI - WIND CHILL INDEX
HX  - HEAT INDEX



USA.gov is the U.S. government's official web portal to all federal, state and local government web resources and services.